www.pogodaiklimat.ru

Погода и климат >> Архив погоды >> Норвегия >> Utsira Fyr


ПОГОДА в Utsira Fyr

  • Прогноз погоды в Utsira Fyr
  • Монитор погоды в Utsira Fyr
  • Климат города

АРХИВ ПОГОДЫ в Utsira Fyr

Время (UTC), дата Ветер
(напр.,м/с)
 
Видим.   Явления Облачность Т
(С)
Тd
(С)
f
(%)
Тe
(С)
Тes
(С)
Комфортность P
(гПа)
Po
(гПа)
Тmin
(С)
Tmax
(С)
R
(мм)
R24
(мм)
S
(см)
19 12.08 С 11
{13}
н/о н/о +13.4 +8.1 70 +10 +10 1008.7 1002.0
20 12.08 С 12
{15}
н/о н/о +12.9 +7.4 69 +9 +9 1009.2 1002.5
21 12.08 С 13
{16}
25 км 3/3 600 м
[Cu med, cong]
+12.8 +7.1 68 +9 +9 1009.7 1003.0
22 12.08 С 12
{15}
н/о н/о +12.5 +6.6 67 +9 +9 1010.0 1003.3
23 12.08 С 11
{15}
н/о н/о +12.4 +6.2 66 +9 +9 1010.6 1003.8
00 13.08 С 12
{16}
н/о н/о +12.3 +6.4 67 +9 +9 1011.0 1004.2
01 13.08 С 10
{14}
н/о н/о +12.2 +6.1 66 +9 +9 1011.1 1004.3
02 13.08 С 8
{13}
н/о н/о +12.3 +6.8 69 +9 +9 1011.5 1004.7
03 13.08 СЗ 7
{13}
н/о н/о +11.9 +6.8 71 +9 +9 1011.8 1005.0
04 13.08 СЗ 6
{13}
н/о н/о +11.5 +6.8 73 +9 +9 1012.4 1005.6
05 13.08 С 6
{9}
н/о н/о +11.8 +6.7 71 +9 +9 1012.8 1006.0
06 13.08 СЗ 6
{14}
30 км в посл. час ливневой дождь 5/5 600 м
[Cb calv]
+11.9 +7.0 72 +9 +10 1013.2 1006.4 +11.2 +13.5 0.1
07 13.08 СЗ 7
{8}
н/о н/о +12.9 +7.2 68 +10 +10 1013.7 1006.9
08 13.08 СЗ 6
{10}
н/о н/о +12.7 +6.3 65 +10 +10 1014.3 1007.5 0.1
09 13.08 З 5
{8}
55 км 4/4 600 м
[Cu med, cong]
+13.8 +7.4 65 +12 +14 1014.8 1008.1
10 13.08 З 6
{8}
н/о н/о +14.3 +7.8 65 +12 +12 1015.2 1008.5
11 13.08 З 6
{9}
н/о н/о +14.5 +7.3 62 +13 +13 1015.5 1008.8
12 13.08 З 6
{11}
30 км в посл. час ливневой дождь 5/4 600 м
[Cb calv Ac cuf]
+13.6 +8.5 71 +11 +14 1015.8 1009.0 0.3
13 13.08 СЗ 7
{10}
н/о н/о +15.0 +8.9 67 +13 +13 1016.3 1009.6
14 13.08 З 7
{9}
н/о н/о +14.9 +7.9 63 +13 +13 1016.6 1009.9
15 13.08 З 8
{10}
30 км в посл. час ливневой дождь 6/5 600 м
[Cb calv Ac cuf]
+14.9 +7.5 61 +13 +13 1017.0 1010.3
16 13.08 З 7
{10}
н/о н/о +14.4 +7.2 62 +12 +12 1017.4 1010.6
17 13.08 З 7
{12}
н/о н/о +14.0 +7.5 65 +12 +12 1017.6 1010.8
18 13.08 З 7
{12}
25 км {ливн. осадки} 5/5 600 м
[Sc diur, vesp]
+13.6 +7.8 68 +11 +11 1017.9 1011.1 +11.9 +15.2
19 13.08 З 6
{9}
н/о н/о +13.3 +7.3 67 +11 +11 1018.3 1011.5
20 13.08 З 6
{9}
н/о н/о +12.9 +7.4 69 +11 +11 1018.7 1011.9
21 13.08 З 7
{10}
25 км 8/8 600 м
[Sc diur, vesp]
+12.9 +8.0 72 +10 +10 1019.0 1012.2 0.1
22 13.08 З 6
{9}
н/о н/о +12.9 +7.6 70 +11 +11 1019.3 1012.5
23 13.08 З 6
{8}
н/о н/о +12.6 +7.3 70 +10 +10 1019.5 1012.7
00 14.08 З 6
{10}
н/о н/о +12.7 +7.4 70 +10 +10 1019.7 1012.9
01 14.08 З 5
{7}
н/о н/о +12.6 +7.1 69 +10 +10 1019.8 1013.0
02 14.08 З 5
{8}
н/о н/о +12.2 +5.8 65 +10 +10 1019.8 1013.0
03 14.08 З 3
{5}
н/о н/о +12.5 +8.0 74 +11 +11 1019.9 1013.1
04 14.08 ЮЗ 4
{7}
н/о н/о +12.2 +7.7 74 +10 +10 1020.0 1013.2 0.1
05 14.08 ЮЗ 6
{7}
н/о н/о +12.3 +7.4 72 +10 +10 1020.2 1013.4 0.2
06 14.08 Ю 2
{8}
25 км слабый ливневой дождь 6/4 600 м
[Cb calv Ac As Ci fib]
+12.0 +8.5 79 +11 +12 1020.5 1013.7 +11.9 +13.6 0.2
07 14.08 Ю 1
{2}
н/о н/о +12.8 +9.1 78 +13 +13 1020.8 1014.0
08 14.08 ЮВ 3
{5}
н/о н/о +14.4 +9.8 74 +14 +14 1021.0 1014.2
09 14.08 Ю 4
{6}
30 км {ливн. осадки} 4/3 600 м
[Cu hum Ac trans Ci fib]
+15.1 +9.0 67 +14 +17 1021.2 1014.4
10 14.08 Ю 5
{7}
н/о н/о +14.9 +8.6 66 +14 +14 1021.2 1014.4
11 14.08 ЮЗ 6
{8}
н/о н/о +15.7 +8.9 64 +14 +14 1021.2 1014.5
12 14.08 Ю 6
{9}
30 км {ливн. осадки} 8/1 1000 м
[Cu hum Cs]
+15.2 +8.0 62 +14 +17 1021.3 1014.5
13 14.08 Ю 6
{8}
н/о н/о +15.5 +8.7 64 +14 +14 1020.9 1014.1
14 14.08 Ю 6
{9}
н/о н/о +15.3 +8.8 65 +14 +14 1020.6 1013.8
15 14.08 Ю 7
{9}
30 км 9/3 1000 м
[Cu hum As trans]
+15.0 +9.6 70 +13 +14 1020.3 1013.5
16 14.08 Ю 9
{11}
н/о н/о +14.9 +10.1 73 +13 +13 1020.0 1013.2
17 14.08 Ю 9
{13}
н/о н/о +14.3 +8.9 70 +12 +12 1019.4 1012.6
18 14.08 ЮВ 9
{13}
15 км слабый дождь 10/4 300 м
[Frnb As op]
+13.5 +10.9 84 +11 +11 1019.3 1012.5 +11.9 +15.7 2
19 14.08 ЮВ 8
{12}
н/о н/о +13.3 +11.2 87 +10 +10 1018.9 1012.1 1
20 14.08 ЮВ 9
{12}
н/о н/о +13.2 +11.1 87 +10 +10 1018.6 1011.8 0.9
21 14.08 ЮВ 10
{15}
10 км слабый дождь 10/8 300 м
[Frnb As op]
+13.7 +11.6 87 +11 +11 1018.0 1011.2 0.8
22 14.08 ЮВ 12
{19}
н/о н/о +13.4 +11.5 88 +10 +10 1017.6 1010.8 7
23 14.08 Ю 13
{18}
н/о н/о +14.2 +12.6 90 +11 +11 1017.1 1010.3 1
00 15.08 Ю 11
{19}
н/о н/о +14.9 +13.1 89 +12 +12 1016.9 1010.2
01 15.08 Ю 13
{17}
н/о н/о +14.3 +12.2 87 +11 +11 1016.7 1010.0 2
02 15.08 Ю 12
{18}
н/о н/о +14.8 +11.6 81 +12 +12 1016.1 1009.4 3
03 15.08 Ю 10
{16}
н/о н/о +15.0 +11.6 80 +13 +13 1015.7 1009.0
04 15.08 ЮВ 11
{16}
н/о н/о +15.1 +11.1 77 +13 +13 1015.1 1008.4
05 15.08 Ю 12
{16}
н/о н/о +14.9 +10.9 77 +12 +12 1014.8 1008.1
06 15.08 ЮВ 12
{18}
15 км слабый дождь 10/1 600 м
[Frnb As op]
+14.7 +10.1 74 +12 +12 1014.0 1007.3 +13.0 +15.3 0.3
07 15.08 ЮВ 9
{17}
н/о н/о +15.1 +10.3 73 +13 +13 1013.6 1006.9 0.3
08 15.08 ЮВ 10
{15}
н/о н/о +15.4 +9.8 69 +13 +13 1012.7 1006.0
09 15.08 ЮВ 12
{18}
20 км в посл. час дождь 10/6 1000 м
[Sc As op]
+15.7 +9.4 66 +13 +13 1011.7 1005.0
10 15.08 ЮВ 12
{17}
н/о н/о +15.5 +10.7 73 +13 +13 1011.7 1005.0 0.3
11 15.08 ЮВ 11
{16}
н/о н/о +15.4 +11.4 77 +13 +13 1011.3 1004.6 0.2
12 15.08 Ю 14
{19}
15 км в посл. час дождь 9/6 600 м
[Sc Ac As]
+15.5 +12.6 83 +13 +13 1011.2 1004.5 0.2
13 15.08 Ю 14
{19}
н/о н/о +16.5 +13.8 84 +14 +14 1010.9 1004.2
14 15.08 Ю 14
{21}
н/о н/о +16.6 +14.1 85 +14 +14 1010.5 1003.8
15 15.08 Ю 13
{18}
15 км в посл. час ливневой дождь 9/9 300 м
[Cb calv]
+16.1 +14.3 89 +14 +14 1010.6 1003.9 1
16 15.08 ЮЗ 8
{16}
н/о н/о +16.7 +15.4 92 +15 +15 1010.6 1003.9 0.3
17 15.08 ЮЗ 9
{12}
н/о н/о +15.9 +13.7 87 +14 +14 1010.7 1004.0
18 15.08 ЮЗ 8
{21}
15 км {ливн. осадки} 6/4 300 м
[Cu Sc Ac As]
+15.7 +14.1 90 +14 +14 1010.9 1004.2 +14.7 +17.0
19 15.08 ЮЗ 7
{10}
н/о н/о +15.4 +13.9 91 +14 +14 1011.0 1004.3
20 15.08 З 6
{11}
н/о н/о +14.9 +13.3 90 +13 +13 1011.1 1004.4 0.1
21 15.08 З 5
{6}
25 км в посл. час ливневой дождь 4/4 600 м
[Sc]
+14.0 +11.5 85 +12 +12 1011.6 1004.9
22 15.08 З 4
{5}
н/о н/о +14.0 +11.5 85 +13 +13 1012.1 1005.4
23 15.08 З 4
{5}
н/о н/о +13.9 +11.4 85 +12 +12 1012.4 1005.7
00 16.08 З 4
{11}
н/о н/о +14.0 +11.7 86 +13 +13 1012.6 1005.9
01 16.08 З 4
{6}
н/о н/о +13.9 +11.4 85 +12 +12 1012.7 1006.0
02 16.08 З 3
{5}
н/о н/о +13.9 +11.6 86 +13 +13 1012.8 1006.1
03 16.08 ЮЗ 4
{5}
н/о н/о +14.0 +11.5 85 +13 +13 1013.2 1006.5
04 16.08 ЮЗ 3
{5}
н/о н/о +13.7 +11.4 86 +13 +13 1013.2 1006.5
05 16.08 ЮЗ 4
{6}
н/о н/о +13.9 +12.0 88 +12 +12 1013.5 1006.8
06 16.08 ЮЗ 5
{6}
30 км 3/3 600 м
[Cu hum]
+14.4 +11.9 85 +13 +13 1013.9 1007.2 +13.5 +15.7
07 16.08 ЮЗ 5
{7}
н/о н/о +15.2 +12.7 85 +14 +14 1014.3 1007.6
08 16.08 ЮЗ 6
{7}
н/о н/о +16.0 +12.9 82 +15 +15 1014.8 1008.1
09 16.08 ЮЗ 6
{8}
30 км 6/4 600 м
[Cu hum Ci fib]
+15.9 +12.7 81 +15 +16 1015.5 1008.8
10 16.08 ЮЗ 5
{8}
н/о н/о +15.7 +12.1 79 +15 +15 1015.8 1009.1
11 16.08 ЮЗ 6
{7}
н/о н/о +16.0 +12.6 80 +15 +15 1016.3 1009.6
12 16.08 ЮЗ 6
{8}
30 км 8/4 600 м
[Cu hum Cs]
+15.9 +12.7 81 +15 +17 1016.6 1009.9
13 16.08 ЮЗ 6
{7}
н/о н/о +16.5 +12.3 76 +15 +15 1016.9 1010.2
14 16.08 ЮЗ 7
{8}
н/о н/о +16.6 +12.4 76 +15 +15 1016.9 1010.2
15 16.08 ЮЗ 7
{9}
55 км 1/1 600 м
[Cu hum Ci fib]
+16.5 +11.7 73 +15 +17 1017.0 1010.3
16 16.08 Ю 6
{8}
н/о н/о +16.3 +11.5 73 +15 +15 1016.6 1009.9
17 16.08 Ю 7
{9}
н/о н/о +15.6 +11.2 75 +14 +14 1016.6 1009.9
18 16.08 Ю 7
{10}
30 км 6/1 600 м
[Cu hum Ci sp]
+15.2 +11.2 77 +13 +13 1016.4 1009.7 +14.4 +16.8
19 16.08 Ю 8
{10}
н/о н/о +15.0 +11.6 80 +13 +13 1016.4 1009.7
20 16.08 Ю 8
{11}
н/о н/о +14.9 +12.0 83 +13 +13 1016.3 1009.6
21 16.08 Ю 10
{13}
30 км 6/1 600 м
[Cu hum Ac trans Ci sp]
+14.9 +12.0 83 +12 +12 1015.8 1009.1
22 16.08 Ю 11
{14}
н/о н/о +15.1 +12.1 82 +13 +13 1015.3 1008.6
23 16.08 Ю 11
{16}
н/о н/о +14.9 +12.2 84 +12 +12 1014.9 1008.2
00 17.08 Ю 13
{17}
н/о н/о +14.7 +12.2 85 +12 +12 1014.6 1007.9
01 17.08 Ю 13
{17}
н/о н/о +14.8 +12.3 85 +12 +12 1013.9 1007.2
02 17.08 Ю 13
{17}
н/о н/о +14.7 +11.9 83 +12 +12 1013.1 1006.4
03 17.08 Ю 13
{19}
н/о н/о +14.8 +12.0 83 +12 +12 1012.4 1005.7
04 17.08 Ю 13
{18}
н/о н/о +15.0 +12.1 83 +12 +12 1011.6 1004.9
05 17.08 Ю 13
{18}
н/о н/о +15.3 +12.4 83 +13 +13 1011.0 1004.3
06 17.08 Ю 13
{19}
25 км 10/5 600 м
[Sc Ac As Cs]
+15.7 +12.8 83 +13 +13 1010.7 1004.0 +14.6 +15.7
07 17.08 Ю 13
{18}
н/о н/о +15.9 +12.8 82 +13 +13 1010.1 1003.4
08 17.08 ЮВ 13
{18}
н/о н/о +16.2 +13.1 82 +14 +14 1009.3 1002.6
09 17.08 Ю 15
{21}
15 км 10/6 300 м
[Sc Ac As]
+16.5 +14.0 85 +14 +14 1008.9 1002.3 0.3
10 17.08 Ю 12
{19}
н/о н/о +16.6 +14.1 85 +15 +15 1008.6 1002.0
11 17.08 Ю 11
{18}
н/о н/о +15.9 +13.2 84 +14 +14 1007.5 1000.8 0.1
12 17.08 Ю 14
{21}
15 км в посл. час дождь 10/6 300 м
[Sc As op]
+16.1 +14.1 88 +14 +14 1007.2 1000.6 0.4
13 17.08 Ю 15
{22}
н/о н/о +14.9 +12.8 87 +12 +12 1007.0 1000.3 2
14 17.08 Ю 14
{22}
н/о н/о +15.2 +13.9 92 +12 +12 1006.3 999.6 4
15 17.08 Ю 14
{21}
7000 м дождь 10/9 200 м
[Frnb As op]
+15.1 +13.8 92 +12 +12 1006.1 999.4 3
16 17.08 Ю 13
{19}
н/о н/о +14.9 +13.8 93 +12 +12 1006.1 999.4 4
17 17.08 Ю 13
{20}
н/о н/о +14.8 +13.7 93 +12 +12 1005.5 998.8 4
18 17.08 Ю 8
{22}
5000 м дождь 10/9 200 м
[Frnb As op]
+15.2 +14.1 93 +13 +13 1005.6 998.9 +14.4 +16.7 2
19 17.08 ЮЗ 5
{12}
н/о н/о +15.3 +14.2 93 +14 +14 1005.7 999.0 0.2
20 17.08 ЮЗ 7
{9}
н/о н/о +15.0 +13.9 93 +13 +13 1006.0 999.3
21 17.08 ЮЗ 6
{9}
15 км {дождь} 10/9 300 м
[Sc]
+14.7 +13.4 92 +13 +13 1006.2 999.5
22 17.08 ЮЗ 5
{8}
н/о н/о +14.0 +12.2 89 +12 +12 1006.4 999.7
23 17.08 Ю 4
{6}
н/о н/о +13.8 +12.0 89 +12 +12 1006.5 999.8
00 18.08 ЮЗ 4
{12}
н/о н/о +13.6 +11.8 89 +12 +12 1006.4 999.7
01 18.08 ЮЗ 4
{6}
н/о н/о +13.4 +11.6 89 +12 +12 1006.4 999.7
02 18.08 Ю 4
{5}
н/о н/о +13.5 +11.7 89 +12 +12 1006.3 999.6
03 18.08 Ю 4
{6}
н/о н/о +13.8 +12.0 89 +12 +12 1006.1 999.4
04 18.08 Ю 6
{8}
н/о н/о +14.1 +12.5 90 +12 +12 1005.9 999.2
05 18.08 Ю 7
{10}
н/о н/о +14.5 +12.7 89 +12 +12 1005.7 999.0
06 18.08 Ю 8
{10}
25 км 4/4 600 м
[Cu hum Ac trans]
+14.7 +12.7 88 +12 +13 1005.4 998.7 +13.2 +15.3
07 18.08 Ю 8
{10}
н/о н/о +15.0 +13.0 88 +13 +13 1005.0 998.3
08 18.08 Ю 9
{11}
н/о н/о +15.1 +13.0 87 +13 +13 1004.9 998.3
09 18.08 Ю 9
{11}
30 км 3/3 600 м
[Cu hum Ac trans]
+15.7 +12.8 83 +14 +14 1004.7 998.1
10 18.08 ЮВ 9
{12}
н/о н/о +15.8 +12.2 79 +14 +14 1004.4 997.8
11 18.08 ЮВ 6
{11}
н/о н/о +16.4 +12.8 79 +15 +15 1003.7 997.1
12 18.08 Ю 9
{13}
30 км 9/4 600 м
[Cu med, cong Ac cast]
+17.0 +13.9 82 +16 +16 1003.1 996.5
13 18.08 Ю 9
{12}
н/о н/о +16.8 +14.1 84 +15 +15 1002.5 995.9
14 18.08 Ю 10
{16}
н/о н/о +15.6 +13.6 88 +13 +13 1001.9 995.3 1
15 18.08 ЮВ 6
{14}
15 км в посл. час гроза {ливн. осадки} 8/6 600 м
[Cb cap Ac cast]
+14.8 +12.1 84 +13 +14 1001.6 995.0 2
16 18.08 Ю 9
{12}
н/о н/о +16.4 +13.7 84 +15 +15 1001.6 995.0
17 18.08 Ю 9
{14}
н/о н/о +15.6 +12.9 84 +14 +14 1001.5 994.9
18 18.08 Ю 10
{16}
5000 м ливневой дождь {гроза} 9/8 300 м
[Cb cap Ac As]
+14.9 +12.2 84 +12 +12 1001.6 995.0 +14.3 +17.3 0.3
19 18.08 ЮЗ 10
{13}
н/о н/о +14.7 +11.5 81 +12 +12 1001.9 995.3 0.1
20 18.08 ЮЗ 9
{13}
н/о н/о +14.3 +10.7 79 +12 +12 1002.1 995.4
21 18.08 ЮЗ 9
{12}
20 км в посл. час ливневой дождь 6/4 600 м
[Cb calv Ac As Ci sp]
+14.0 +10.4 79 +11 +11 1002.2 995.5
22 18.08 Ю 7
{11}
н/о н/о +14.1 +10.3 78 +12 +12 1002.0 995.3
23 18.08 Ю 9
{11}
н/о н/о +14.2 +9.8 75 +12 +12 1001.7 995.0
00 19.08 Ю 9
{13}
н/о н/о +14.2 +10.0 76 +12 +12 1001.1 994.5
01 19.08 Ю 11
{14}
н/о н/о +14.4 +10.2 76 +12 +12 1000.6 994.0
02 19.08 Ю 12
{16}
н/о н/о +14.3 +10.5 78 +11 +11 999.8 993.2 2
03 19.08 Ю 10
{17}
н/о н/о +13.7 +10.3 80 +11 +11 999.2 992.6
04 19.08 Ю 14
{17}
н/о н/о +14.0 +9.3 73 +11 +11 998.9 992.3
05 19.08 Ю 14
{18}
н/о н/о +13.7 +10.1 79 +10 +10 998.3 991.7 0.4
06 19.08 Ю 13
{18}
15 км слабый ливневой дождь 5/4 600 м
[Cb calv]
+13.2 +10.7 85 +10 +10 997.9 991.2 +13.1 +15.1 0.5
07 19.08 Ю 13
{20}
н/о н/о +13.5 +11.7 89 +10 +10 997.6 991.0 3
08 19.08 ЮЗ 9
{16}
н/о н/о +13.5 +11.4 87 +11 +11 998.0 991.4
09 19.08 ЮЗ 10
{13}
25 км в посл. час ливневой дождь 8/6 600 м
[Cb calv Ac As Ci fib]
+14.4 +12.3 87 +12 +12 998.3 991.7 0.2
10 19.08 ЮЗ 10
{13}
н/о н/о +14.8 +12.1 84 +12 +12 998.7 992.1
11 19.08 ЮЗ 11
{14}
н/о н/о +15.5 +12.1 80 +13 +13 999.3 992.7
12 19.08 З 11
{20}
20 км {ливн. осадки} 8/6 600 м
[Cb cap Ac As Ci fib]
+15.0 +12.3 84 +12 +12 999.9 993.3
13 19.08 ЮЗ 12
{15}
н/о н/о +15.6 +11.8 78 +13 +13 1000.6 994.0
14 19.08 ЮЗ 11
{16}
н/о н/о +15.6 +11.4 76 +13 +13 1000.9 994.3
15 19.08 ЮЗ 11
{15}
20 км 5/3 600 м
[Cu med, cong Ac As]
+15.1 +11.3 78 +13 +13 1001.3 994.7
16 19.08 ЮЗ 12
{16}
н/о н/о +15.2 +11.2 77 +13 +13 1001.6 995.0
17 19.08 ЮЗ 12
{16}
н/о н/о +14.5 +11.1 80 +12 +12 1001.7 995.1

 

Местоположение метеостанции Utsira Fyr (Норвегия): широта 59.31 долгота 4.88 высота над уровнем моря 55 м.

В архиве по умолчанию представлена погода в Utsira Fyr за последнюю неделю. Архивные данные за месяц целиком и за предыдущие месяцы, начиная с января 2011 года, Вы можете получить, выбрав интересующий диапазон дат из раскрывающегося списка и нажав кнопку "Ввод!".

Внимание! Время в таблицах - всемирное. Для получения местного времени необходимо прибавить поправку, которая в Utsira Fyr равна 1 ч.

Смотрите также архив погоды в соседних городах и на ближайших метеорологических станциях:

Погода в Rovaer (Норвегия) (18 км)
Погода в Haugesund Lufthavn (Норвегия) (19 км)
Погода в Kvitsoy (Норвегия) (41 км)
Погода в Vats I Vindafjord (Норвегия) (52 км)
Погода в Stavanger (Норвегия) (62 км)
Погода в Stavanger Lufthavn (Норвегия) (65 км)
Погода в Fister-Sigmundstad (Норвегия) (67 км)
Погода в Slatteroy Fyr (Норвегия) (68 км)
Погода в Saerheim (Норвегия) (75 км)
Погода в Liarvatn (Норвегия) (76 км)

Пояснения к столбцам:

Ветер - указаны скорость ветра в м/с - средняя за 10 мин, порывы в срок и между сроками (в фигурных скобках) и направление, откуда дует ветер: С - северный, СВ - северо-восточный, В - восточный, ЮВ - юго-восточный, Ю - южный, ЮЗ - юго-западный, З - западный, СЗ - северо-западный.
Видимость - горизонтальная дальность видимости в метрах или километрах. При видимости от 1 до 10 км при отсутствии осадков обычно наблюдается дымка, при ухудшении видимости до 1 км и менее - туман. В сухую погоду видимость может ухудшаться дымом, пылью или мглою.
Явления - указаны атмосферные явления, наблюдавшиеся в срок или в последний час перед сроком; фигурными скобками обозначены явления, наблюдавшиеся между сроками (за 1-3 часа до срока); квадратными скобками обозначены град или гололедные отложения с указанием их диаметра в мм.
Облачность - указаны через наклонную черту общая и нижняя облачность в баллах и высота нижней границы облаков в метрах; квадратными скобками обозначены формы облаков: Ci - перистые, Cs - перисто-слоистые, Cc - перисто-кучевые, Ac - высококучевые, As - высокослоистые, Sc - слоисто-кучевые, Ns - слоисто-дождевые, Cu - кучевые, Cb - кучево-дождевые. Подробнее классификацию облаков см. в Атласе облаков (PDF).
T - Температура воздуха - температура, измеренная на высоте 2 м над землей.
Td - Температура точки росы - температура, при понижении до которой содержащийся в воздухе водяной пар достигнет насыщения.
f - Относительная влажность воздуха - влажноcть воздуха, измеренная на высоте 2 м над землей.
Te - Эффективная температура - температура, которую ощущает одетый по сезону человек в тени. Характеристика душности погоды. При расчете учитывается влияние влажности воздуха и скорости ветра на теплоощущения человека.
Tes - Эффективная температура на солнце - температура, которую ощущает человек, с поправкой на солнечный нагрев. Характеристика знойности погоды. Зависит от высоты солнца над горизонтом, облачности и скорости ветра. Ночью, в пасмурную погоду, а также при ветре 12 м/с и более поправка равна нулю.
P - Атмосферное давление - приведенное к уровню моря атмосферное давление.
Po - Атмосферное давление - измеренное на уровне метеостанции атмосферное давление.
Tmin - Минимальная температура - минимум температуры воздуха на высоте 2 м над землей.
Tmax - Максимальная температура - максимум температуры воздуха на высоте 2 м над землей.
R - Количество осадков - Количество выпавших осадков за период времени, мм. При наведении курсора мыши на число - период времени, за который выпало указанное количество осадков.
R24 - Количество осадков - Количество выпавших осадков за 24 часа, мм.
S - Снежный покров - Высота снежного покрова, см. При наведении курсора мыши на число - состояние снежного покрова и степень покрытия местности в баллах.